#timestamp,LO_Frequency,Hit,StdDev 
1578034815.3,286046969.2,N
1578034835.2,286046969.0,N
1578034855.0,286046962.2,N
1578034855.9,286046962.2,N
1578034875.8,286046955.9,N
1578034895.6,286046950.2,N
1578034915.4,286046949.5,N
1578034935.3,286046946.5,N
1578034955.1,286046946.0,N
1578034975.8,286046948.3,N
1578034995.7,286046946.7,N
1578035015.5,286046943.9,N
1578035035.4,286046951.6,N
1578035055.2,286046952.5,N
1578035075.0,286046958.9,N
1578035075.9,286046958.9,N
1578035095.8,286046964.6,N
1578035115.6,286046964.6,N
1578035135.4,286046967.2,N
1578035155.3,286046971.1,N
1578035175.1,286046965.4,N
1578035195.9,286046961.3,N
1578035215.7,286046957.8,N
1578035235.5,286046968.4,N
1578035255.4,286046973.0,N
1578035275.2,286046973.2,N
1578035295.0,286046962.2,Y
1578035296.0,286046962.2,P
1578035315.8,286046996.2,P
1578035335.6,286046999.5,N
1578035355.5,286046996.8,N
1578035375.3,286046995.7,N
1578035395.1,286046984.2,N
1578035415.9,286046980.7,N
1578035435.7,286046983.7,N
1578035455.6,286046993.1,N
1578035475.4,286046988.6,N
1578035495.2,286046987.8,N
1578035515.1,286046994.8,N
1578035516.0,286046994.8,N
1578035535.8,286046995.8,N
1578035555.6,286046987.5,N
1578035575.5,286046980.5,N
1578035595.3,286046977.5,N
1578035615.2,286046968.2,N
1578035635.9,286046970.6,N
1578035655.7,286046966.5,N
1578035675.6,286046966.1,N
1578035695.4,286046972.8,N
1578035715.2,286046975.2,N
1578035735.1,286046981.8,N
1578035736.0,286046981.8,N
1578035755.8,286046981.6,N
1578035775.7,286046982.0,N
1578035795.5,286046980.0,N
1578035815.3,286046976.5,N
1578035835.2,286046970.9,N
1578035855.0,286046970.2,N
1578035855.9,286046970.2,Y
1578035875.8,286046986.3,P
1578035895.6,286046989.5,P
1578035915.4,286046994.3,N
1578035935.3,286046993.4,N
1578035955.1,286046992.5,N
1578035975.8,286046997.1,N
1578035995.7,286046995.1,N
1578036015.5,286046994.1,N
1578036035.4,286046988.0,N
1578036055.2,286046981.7,Y
1578036075.0,286046992.3,P
1578036075.9,286046992.3,P
1578036095.8,286046994.3,P
1578036115.6,286046993.4,Y
1578036135.4,286047002.4,P
1578036155.3,286047002.2,N
1578036175.1,286047003.1,N
1578036195.9,286047002.8,N
1578036215.7,286047001.6,N
1578036235.5,286046998.2,N
1578036255.4,286046998.1,N
1578036275.2,286046997.3,N
1578036295.0,286046997.7,N
1578036296.0,286046997.7,N
1578036315.8,286046993.4,N
1578036335.6,286046993.3,N
1578036355.5,286046994.7,N
1578036375.3,286046992.2,N
1578036395.1,286046999.3,N
1578036415.9,286047005.2,N
1578036435.7,286047003.6,N
1578036455.5,286046997.1,N
1578036475.4,286046995.3,N
1578036495.2,286046993.5,N
1578036515.1,286046990.4,N
1578036516.0,286046990.4,N
1578036535.8,286046985.8,Y
1578036555.6,286046983.8,P
1578036575.5,286046979.7,N
1578036595.3,286046974.1,P
1578036615.2,286046972.2,Y
1578036635.9,286046983.8,P
1578036655.7,286046980.4,P
1578036675.6,286046974.2,P
1578036695.4,286046973.7,Y
1578036715.2,286046989.3,P
1578036735.1,286046979.5,P
1578036736.0,286046979.5,P
1578036755.8,286046972.5,Y
1578036775.7,286046991.1,P
1578036795.5,286046989.7,N
1578036815.3,286046991.1,N
1578036835.2,286046989.1,N
1578036855.9,286046986.7,Y
1578036875.7,286046993.0,P
1578036895.6,286046990.0,P
1578036915.4,286046986.5,P
1578036935.3,286046985.1,Y
1578036955.1,286046999.4,P
1578036956.0,286046999.4,N
1578036975.8,286046998.6,N
1578036995.7,286047001.0,N
1578037015.5,286046994.4,N
1578037035.4,286046988.0,Y
1578037055.2,286046992.1,P
1578037075.0,286046994.0,N
1578037075.9,286046994.0,N
1578037095.8,286046990.8,Y
1578037115.6,286046997.5,P
1578037135.5,286046998.4,N
1578037155.3,286047001.1,N
1578037175.1,286047002.6,N
1578037195.9,286046995.8,N
1578037215.7,286046994.1,N
1578037235.5,286046993.5,N
1578037255.4,286046987.4,Y
1578037275.2,286046987.9,P
1578037295.1,286046988.3,N
1578037296.0,286046988.3,N
1578037315.8,286046993.8,N
1578037335.6,286047002.1,N
1578037355.5,286047007.0,N
1578037375.3,286047009.4,N
1578037395.1,286047014.3,N
1578037415.9,286047008.0,N
1578037435.7,286047010.5,N
1578037455.6,286047009.5,N
1578037475.4,286047019.7,N
1578037495.2,286047018.2,N
1578037515.1,286047020.9,N
1578037516.0,286047020.9,N
1578037535.8,286047026.4,N
1578037555.6,286047028.3,N
1578037575.5,286047028.1,N
1578037595.3,286047030.0,N
1578037615.2,286047022.9,N
1578037635.9,286047017.3,N
1578037655.7,286047011.5,N
1578037675.6,286047013.0,N
1578037695.4,286047018.6,N
1578037715.2,286047014.8,N
1578037735.1,286047010.9,N
1578037736.0,286047010.9,N
1578037755.8,286047014.6,N
1578037775.7,286047016.8,N
1578037795.5,286047018.0,N
1578037815.3,286047020.2,N
1578037835.2,286047018.6,N
1578037855.0,286047014.6,N
1578037855.9,286047014.6,N
1578037875.8,286047016.9,N
1578037895.6,286047016.5,N
1578037915.4,286047011.7,N
1578037935.3,286047009.7,N
1578037955.1,286047004.5,N
1578037975.8,286047007.4,N
1578037995.7,286047003.5,N
1578038015.5,286047001.4,N
1578038035.4,286047003.4,N
1578038055.2,286046998.3,N
1578038075.0,286047001.9,N
1578038075.9,286047001.9,N
1578038095.8,286047008.8,N
1578038115.6,286047020.2,N
1578038135.4,286047026.9,Y
1578038155.3,286047021.5,P
1578038175.1,286047015.8,P
1578038195.9,286047013.7,P
1578038215.7,286047003.0,N
1578038235.5,286046994.9,N
1578038255.4,286046992.3,N
1578038275.2,286047000.5,N
1578038295.0,286046999.1,N
1578038295.9,286046999.1,N
1578038315.8,286046997.3,N
1578038335.6,286047002.5,N
1578038355.5,286047005.3,N
1578038375.3,286047003.0,N
1578038395.1,286047004.8,N
